Location: Leeds
(37.2390°N, 113.3580°W)
Time: 17:50:19
(UTC-06:00)

ISS - All Passes

Search period start: 27 May 2015 00:00
Search period end: 06 June 2015 00:00
Orbit: 399 x 404 km, 51.6° (Epoch: 27 May)

Date Brightness Start Highest point End Pass type
(mag) Time Alt. Az. Time Alt. Az. Time Alt. Az.
27 May - 00:17:49 10° SW 00:21:03 80° NW 00:24:18 10° NE night (unlit)
27 May - 01:56:11 10° NW 01:57:56 13° NNW 01:59:38 10° N visible
27 May - 05:12:27 10° N 05:13:17 11° NNE 05:14:10 10° NE visible
27 May - 06:47:11 10° NW 06:50:22 48° NE 06:53:32 10° ESE daylight
27 May - 08:24:37 10° W 08:26:31 14° SW 08:28:20 10° SSW daylight
27 May - 23:24:46 10° SSW 23:27:52 45° SE 23:31:00 10° ENE night (unlit)
28 May - 01:01:56 10° WNW 01:04:27 20° NNW 01:06:56 10° NNE visible
28 May - 05:54:12 10° NNW 05:57:01 26° NNE 05:59:51 10° E daylight
28 May - 07:30:32 10° WNW 07:33:26 29° SW 07:36:19 10° SSE daylight
28 May - 22:32:15 10° S 22:34:45 21° SE 22:37:19 10° E night (unlit)
29 May - 00:08:03 10° W 00:11:03 33° NNW 00:14:03 10° NNE visible
29 May - 05:01:23 10° NNW 05:03:34 17° NNE 05:05:48 10° ENE visible
29 May - 06:37:03 10° NW 06:40:18 66° SW 06:43:31 10° SE daylight
29 May - 21:41:26 10° SE 21:41:41 10° SE 21:42:04 10° ESE night (unlit)
29 May - 23:14:31 10° WSW 23:17:44 66° NW 23:20:58 10° NE visible
30 May - 00:53:11 10° NW 00:54:41 12° NNW 00:56:07 10° N visible
30 May - 04:08:50 10° N 04:10:02 12° NNE 04:11:18 10° NE visible
30 May - 05:43:49 10° NW 05:47:03 57° NE 05:50:16 10° ESE visible
30 May - 07:21:44 10° WSW 07:23:09 12° SW 07:24:26 10° SSW daylight
30 May - 22:21:20 10° SW 22:24:29 55° SE 22:27:41 10° ENE visible
30 May - 23:58:48 10° WNW 00:01:09 18° NNW 00:03:28 10° NNE visible
31 May - 04:50:46 10° NNW 04:53:42 30° NNE 04:56:38 10° E visible
31 May - 06:27:18 10° WNW 06:30:03 25° SW 06:32:45 10° S daylight
31 May - 21:28:38 10° S 21:31:20 25° SE 21:34:05 10° ENE visible
31 May - 23:04:48 10° W 23:07:41 29° NNW 23:10:35 10° NNE visible
01 Jun - 03:57:53 10° NNW 04:00:14 18° NNE 04:02:38 10° ENE visible
01 Jun - 05:33:41 10° WNW 05:36:52 54° SW 05:40:03 10° SE visible
01 Jun - 20:36:54 10° SSE 20:38:13 12° SE 20:39:39 10° ESE daylight
01 Jun - 22:11:08 10° WSW 22:14:18 55° NW 22:17:31 10° NE visible
01 Jun - 23:50:10 10° NW 23:51:20 11° NNW 23:52:27 10° N visible
02 Jun - 03:05:11 10° N 03:06:41 13° NNE 03:08:14 10° NE visible
02 Jun - 04:40:22 10° NW 04:43:37 68° NE 04:46:52 10° ESE visible
02 Jun - 21:17:50 10° SW 21:21:02 68° SE 21:24:15 10° NE visible
02 Jun - 22:55:35 10° WNW 22:57:45 16° NNW 22:59:54 10° NNE visible
03 Jun - 03:47:14 10° NNW 03:50:16 34° NNE 03:53:17 10° ESE visible
03 Jun - 05:23:59 10° W 05:26:32 21° SW 05:29:02 10° S visible
03 Jun - 20:24:58 10° SSW 20:27:49 30° SE 20:30:43 10° ENE daylight
03 Jun - 22:01:27 10° W 22:04:14 25° NNW 22:07:01 10° NNE visible
04 Jun - 02:54:16 10° NNW 02:56:47 20° NNE 02:59:20 10° E visible
04 Jun - 04:30:14 10° WNW 04:33:21 44° SW 04:36:28 10° SSE visible
04 Jun - 19:32:50 10° SSE 19:34:39 15° SE 19:36:35 10° E daylight
04 Jun - 21:07:41 10° WSW 21:10:48 46° NW 21:13:57 10° NE daylight
04 Jun - 22:47:08 10° NNW 22:47:54 11° NNW 22:48:36 10° N visible
05 Jun - 02:01:29 10° N 02:03:13 14° NNE 02:05:00 10° NE visible
05 Jun - 03:36:50 10° NW 03:40:06 82° NE 03:43:21 10° SE visible
05 Jun - 20:14:14 10° SW 20:17:28 82° SE 20:20:43 10° NE daylight
05 Jun - 21:52:16 10° WNW 21:54:15 15° NNW 21:56:12 10° NNE visible
